Helicity
150 77 38 21 -1 2 15 49 -5 27 11 49 58 72 98 244 334 531 575 456 277 209 119 73 267 345 399 304 230 212 286 204 205 242 235 201 133 83 84 91 114 143 118 138
90 2 17 18 1 29 45 60 22 10 14 92 57 38 76 261 341 500 466 402 288 239 210 93 202 314 367 372 263 233 263 238 179 203 194 161 123 65 59 77 104 128 151 143
46 -10 -2 20 34 74 39 86 35 15 11 2 34 36 52 66 278 312 219 240 281 247 229 66 222 350 360 348 328 260 245 213 186 130 157 182 146 110 99 89 106 117 158 147
29 24 31 43 91 66 126 31 32 29 52 8 20 -56 29 38 162 80 227 202 178 175 134 102 164 325 389 417 395 242 243 229 174 129 151 199 177 156 85 81 90 139 163 187
-15 70 100 115 120 50 36 24 53 42 70 21 -5 19 -15 38 -11 9 194 162 182 154 135 98 254 333 352 405 444 313 265 227 169 162 123 152 155 114 104 107 133 164 170 194
7 16 32 59 54 37 38 67 114 82 40 -8 77 48 31 19 36 91 181 184 184 92 98 32 167 296 305 409 416 293 263 191 173 167 116 128 145 135 163 152 168 186 213 212
13 -21 10 -11 47 78 68 131 73 64 65 -22 35 26 23 29 58 47 180 142 153 152 136 83 180 315 381 428 431 425 299 259 152 117 99 102 160 197 217 205 227 254 259 225
47 43 -12 76 60 67 70 97 96 66 75 32 52 77 77 15 21 102 202 108 159 173 174 211 218 346 407 427 439 419 314 257 129 106 61 79 199 235 230 257 266 272 266 260
105 74 37 21 70 88 72 120 94 116 106 108 42 26 10 53 97 164 155 105 136 115 134 229 257 306 424 407 476 372 419 228 156 115 82 94 218 274 242 265 320 343 324 305
114 104 63 61 7 2 51 111 144 186 141 114 79 39 27 43 76 62 59 50 68 37 44 77 262 304 386 409 395 381 351 255 177 133 103 134 234 296 288 334 448 445 375 350
155 153 32 41 69 92 184 207 207 135 180 157 141 95 61 62 50 40 22 36 54 176 48 44 129 236 402 386 420 392 353 203 225 223 172 195 241 284 321 419 506 493 468 408
144 126 116 43 25 50 146 226 289 212 179 160 152 145 75 147 67 16 69 75 81 127 130 116 110 219 408 425 453 425 354 291 274 252 281 284 276 328 424 504 617 534 508 446
202 176 211 143 84 80 130 109 184 189 197 164 178 144 101 69 18 -11 88 82 107 172 179 178 169 223 359 464 455 424 405 324 325 300 286 353 396 432 543 629 601 601 586 536
276 231 221 191 118 104 171 161 151 187 226 179 170 121 87 66 45 40 43 67 129 208 168 180 165 187 296 430 457 431 402 418 431 374 364 400 458 522 557 569 639 628 607 581
286 243 245 235 200 119 129 205 177 214 183 202 137 110 81 112 101 64 43 44 144 140 215 192 243 250 324 403 423 373 444 502 447 423 386 440 476 498 563 604 616 624 611 553
275 276 277 268 269 262 158 160 182 213 208 225 146 177 131 48 -7 27 50 58 117 132 188 195 289 282 294 353 385 432 453 448 464 451 473 533 536 515 565 616 617 624 606 541
211 275 287 238 236 225 162 132 150 197 219 212 244 173 136 101 107 95 106 172 51 107 184 245 237 280 319 352 408 428 416 417 432 488 510 526 539 561 552 567 574 580 552 498
260 275 304 242 253 187 175 256 206 201 219 230 229 190 140 126 95 102 180 172 203 154 81 145 180 202 293 344 369 391 389 421 494 504 472 496 556 558 550 531 523 521 459 402
261 309 357 293 255 233 241 255 246 246 201 140 119 177 200 179 89 163 295 258 235 194 110 100 173 317 361 344 382 402 442 498 526 494 500 536 559 587 548 512 480 459 427 394
292 338 312 273 254 222 136 150 73 88 165 138 148 155 177 216 248 216 245 233 242 181 113 189 352 373 380 336 379 401 433 468 492 533 554 559 561 560 512 482 452 400 359 370
317 341 248 286 236 230 209 203 181 223 232 172 143 156 195 164 104 152 214 277 215 176 201 245 301 322 358 317 322 327 394 405 486 553 583 545 500 468 453 442 400 399 388 362
192 227 240 263 236 208 197 209 209 213 202 155 154 154 175 183 202 206 247 278 274 204 210 275 264 221 249 271 287 265 315 393 456 511 495 455 451 429 419 414 374 400 391 362
205 200 185 182 178 181 180 184 219 209 185 135 107 88 115 178 213 220 249 275 272 261 191 237 233 185 169 200 173 232 306 427 472 453 424 405 382 378 365 380 374 387 365 332
264 272 282 256 279 137 266 335 302 333 255 194 149 147 133 105 190 207 178 171 193 189 163 88 118 176 137 131 164 221 342 408 453 444 396 361 387 352 324 329 342 355 332 322
231 287 307 324 283 325 336 277 249 284 358 357 347 297 181 141 126 86 88 152 157 128 101 61 83 86 117 148 180 252 336 414 436 433 412 399 381 349 362 384 335 299 266 304
162 165 265 322 320 348 324 331 282 241 211 197 213 224 175 119 85 56 39 51 64 131 69 76 77 120 144 190 159 248 299 369 439 422 437 424 402 392 396 422 421 405 258 242
Wind_Speed
37 36 31 37 35 31 35 37 53 45 36 42 30 19 18 7 6 7 13 10 12 14 20 21 19 35 37 31 28 27 25 30 26 18 18 15 14 16 16 16 16 18 20 22
34 40 36 38 40 36 36 38 50 50 41 29 19 10 34 4 6 12 15 6 13 23 23 25 30 46 45 36 33 25 26 29 23 17 14 11 15 17 20 17 16 17 19 21
23 31 29 33 45 45 49 26 34 33 39 24 44 48 37 25 13 5 5 8 15 20 25 30 40 40 38 37 31 27 28 29 24 21 16 15 12 13 12 16 15 15 18 21
35 38 33 32 35 37 50 45 35 35 40 48 48 59 49 29 12 5 7 14 16 19 29 35 26 36 45 40 31 28 24 26 23 22 27 25 22 18 11 19 19 17 19 20
32 30 26 41 55 57 33 43 34 32 38 44 53 51 41 26 13 15 9 18 19 19 24 33 26 34 41 33 36 32 28 26 25 27 27 26 23 20 19 17 17 15 17 18
39 49 41 46 60 50 45 33 34 35 37 47 39 31 32 19 11 7 6 20 18 24 23 31 24 25 32 27 30 28 23 27 30 34 32 32 31 23 18 15 13 13 16 17
55 76 65 55 61 56 38 34 46 47 42 35 40 39 29 6 5 21 12 21 23 20 23 27 24 22 26 31 30 29 25 30 38 36 37 35 33 22 19 18 13 10 10 12
38 52 58 41 41 41 36 30 34 39 33 34 33 27 35 28 26 22 17 16 17 16 16 21 25 19 23 31 33 26 27 35 44 41 41 36 33 22 18 19 12 7 7 8
40 54 49 53 48 33 35 40 31 40 40 40 33 38 37 32 26 23 20 15 12 14 14 18 23 18 20 27 36 38 26 40 44 45 41 40 32 23 15 19 15 7 8 9
48 58 43 47 43 51 38 30 42 42 45 46 36 28 37 22 18 18 16 14 10 9 10 13 17 22 21 26 33 32 31 38 41 45 40 35 30 25 17 16 9 5 6 7
45 53 60 46 48 50 41 42 37 33 38 42 46 40 25 8 11 16 14 7 8 12 5 5 10 20 22 21 27 31 32 30 35 36 35 29 29 22 16 15 10 8 4 3
46 44 56 60 44 39 40 39 36 41 41 44 50 45 30 13 25 23 20 8 6 11 11 10 4 12 16 23 26 32 31 30 31 35 33 29 26 19 14 11 8 7 4 2
41 54 57 61 55 44 42 38 37 43 46 54 57 56 47 56 63 51 36 11 11 14 15 13 8 7 11 13 22 27 27 26 23 25 26 25 24 18 13 11 10 6 5 4
36 49 53 54 50 44 50 46 39 45 57 55 53 55 50 57 66 57 41 24 23 20 14 11 8 4 5 6 14 19 20 20 19 21 22 22 21 17 14 12 10 7 6 4
45 54 50 49 49 44 48 50 49 50 50 53 57 60 59 56 56 64 49 42 27 22 18 13 11 8 5 6 8 12 14 17 19 20 19 18 16 14 12 10 8 6 5 4
46 52 48 49 48 51 55 48 49 53 54 59 60 62 52 51 50 53 58 44 27 22 22 19 16 11 11 9 10 12 15 17 18 17 15 14 14 13 11 9 7 5 5 5
49 50 53 63 50 57 76 59 53 51 51 55 62 49 48 46 47 49 54 57 49 39 29 23 18 14 13 13 12 14 15 14 16 16 14 15 14 13 11 8 7 6 6 5
50 50 53 62 55 84 63 54 48 46 47 45 44 47 48 48 41 39 54 60 62 59 39 29 24 17 18 20 16 13 11 13 15 15 14 14 14 13 10 8 6 5 5 6
43 48 56 61 67 68 58 49 41 46 56 46 46 50 52 52 39 41 65 65 67 70 60 29 27 22 18 16 13 13 12 13 14 15 15 15 15 13 11 9 7 7 6 6
45 45 54 59 70 75 57 58 50 44 66 44 43 49 55 51 56 60 68 70 76 73 66 33 25 22 15 14 11 12 15 16 16 15 14 13 14 14 13 10 8 7 6 6
61 61 65 63 69 67 57 53 44 59 63 39 41 46 50 50 47 54 61 64 66 62 52 31 21 19 18 12 13 16 17 20 18 13 12 12 13 13 12 10 9 7 6 5
61 65 71 69 78 90 52 51 62 44 36 37 41 43 44 44 47 53 58 62 63 58 49 36 20 19 18 21 15 23 23 22 17 14 14 14 14 13 12 11 10 7 6 6
58 56 58 56 61 40 34 32 28 32 35 38 40 42 43 46 48 52 56 59 60 58 51 44 33 29 27 29 24 31 28 20 18 16 17 18 15 14 13 13 12 10 9 9
48 47 49 45 47 31 31 30 32 32 29 32 33 37 41 42 48 52 55 58 60 58 56 49 41 34 31 30 28 32 22 19 19 20 20 19 18 16 16 16 13 12 12 10
47 46 46 39 33 28 37 36 36 35 35 38 40 44 47 50 56 56 58 61 65 64 61 56 52 50 40 34 33 31 24 20 20 22 22 22 21 20 19 19 16 16 15 14
44 45 49 49 41 41 41 38 36 40 43 47 52 57 58 60 64 63 66 66 68 73 71 67 67 65 59 44 38 34 26 23 23 24 25 25 25 22 21 19 20 24 18 15
Wind_Direction
276 281 280 284 282 290 300 309 303 312 319 325 346 348 4 75 92 112 134 104 77 65 81 112 153 156 152 148 143 139 137 141 132 109 115 115 114 106 94 89 78 56 62 51
275 275 278 281 277 289 299 305 301 304 314 332 319 328 341 94 158 143 147 111 67 75 75 94 144 160 163 159 154 143 147 148 142 129 115 111 114 111 107 95 84 68 55 50
267 284 277 278 274 284 289 309 316 325 325 344 331 323 347 1 1 85 111 118 107 104 114 122 152 165 164 166 163 155 153 152 145 136 125 117 101 99 84 93 83 66 45 50
273 272 277 280 282 291 289 297 315 325 325 308 320 297 325 355 11 101 107 147 138 123 137 154 143 158 170 171 168 167 156 157 152 145 147 141 137 128 97 109 95 73 58 55
269 274 272 275 269 279 292 299 310 324 323 316 304 315 333 11 64 148 162 157 156 149 152 163 152 158 162 160 166 169 162 163 160 158 157 151 146 135 116 104 95 69 63 58
269 265 275 276 262 281 283 302 307 312 322 312 326 341 344 11 30 40 152 170 162 164 155 163 144 143 159 160 167 168 171 170 168 167 164 162 157 145 130 118 101 82 76 57
263 247 260 270 265 270 289 290 291 295 304 314 323 331 342 81 118 16 106 154 159 158 164 167 155 151 160 171 173 173 177 178 174 173 171 168 164 156 153 143 119 89 57 30
264 267 259 270 275 279 287 287 290 299 309 322 326 332 331 357 348 3 55 110 130 150 165 174 178 169 169 176 177 174 181 182 177 174 175 173 170 165 160 152 130 90 47 36
271 268 272 269 271 277 280 281 296 295 305 307 319 313 331 356 10 30 34 60 103 136 155 174 187 187 180 180 181 182 173 176 177 177 177 176 171 168 168 160 149 109 71 71
267 274 274 274 276 277 263 285 285 289 289 294 309 318 316 346 8 34 46 56 78 132 160 177 189 191 185 184 181 178 177 178 178 179 180 180 178 174 173 169 169 148 103 80
260 266 264 274 272 279 270 265 284 295 286 289 296 303 325 5 22 3 354 3 17 20 94 137 178 187 187 183 180 184 182 182 185 185 186 187 184 183 181 183 186 169 139 93
254 272 263 265 275 290 275 261 260 276 285 289 293 292 314 306 316 331 328 276 321 350 5 16 95 157 170 182 184 188 190 192 193 192 193 197 195 195 203 209 213 185 197 295
250 261 265 268 268 275 276 278 270 278 286 283 287 296 300 294 296 313 323 274 283 316 336 355 33 121 168 186 195 195 195 198 200 199 203 206 205 210 215 217 215 223 219 277
249 260 257 258 270 266 269 271 274 276 279 286 287 297 302 299 296 303 314 306 296 298 305 325 326 305 231 220 202 203 208 206 203 201 208 214 212 219 219 221 222 213 222 246
256 258 264 268 267 270 273 274 275 277 281 281 291 294 300 304 303 300 302 304 293 284 281 296 297 282 264 273 232 220 225 215 206 205 212 222 226 227 226 226 226 215 212 261
263 261 265 267 272 272 270 276 279 282 286 288 289 292 310 313 315 313 314 311 290 274 263 286 297 283 280 269 242 234 231 221 214 219 229 227 225 216 216 216 207 214 263 270
262 262 264 265 273 276 269 272 276 282 286 289 287 296 306 308 318 323 320 316 309 297 277 269 266 266 273 274 264 244 234 232 224 229 225 215 215 215 213 202 204 228 254 263
258 262 267 267 271 267 280 283 279 280 288 292 296 300 305 307 314 324 323 317 313 310 301 272 268 268 292 298 287 279 249 239 239 235 226 215 214 214 210 207 228 265 265 260
265 262 266 266 267 277 279 279 284 283 282 289 292 298 302 305 312 303 315 316 314 308 305 272 256 271 290 297 293 278 266 254 245 237 229 221 212 214 211 223 246 273 277 290
267 270 265 268 268 268 280 282 291 289 279 290 296 301 304 305 295 301 311 313 309 309 309 290 267 268 273 300 310 295 276 265 255 246 235 223 218 218 223 236 243 277 277 284
259 265 263 267 270 276 281 290 295 276 281 292 299 303 308 305 307 310 314 316 319 316 318 319 292 272 285 299 305 303 293 275 272 263 253 241 236 233 242 250 266 275 270 273
260 262 264 268 270 272 290 288 277 285 293 296 301 304 307 311 314 315 317 318 320 318 318 316 306 287 285 290 303 302 296 291 279 266 254 248 248 254 253 255 270 264 241 241
266 269 269 271 275 284 307 295 299 297 294 297 300 303 306 308 313 317 319 321 321 318 310 306 301 299 295 289 295 300 299 291 281 269 263 259 253 256 251 252 255 252 237 238
273 284 273 277 286 284 298 308 314 319 310 313 315 315 315 313 315 315 316 316 317 318 317 302 296 298 296 295 299 298 297 290 281 275 267 260 257 260 263 268 252 241 232 239
275 279 279 280 291 290 299 302 306 307 313 314 315 313 312 312 311 313 310 310 307 307 308 310 294 289 291 293 295 295 293 289 284 278 270 264 262 260 268 273 254 242 248 237
280 277 274 274 286 289 295 304 309 305 306 306 305 304 304 306 305 306 302 303 304 299 299 301 300 287 286 283 287 286 282 276 277 281 271 264 263 264 263 254 269 289 271 255